Weather History for VIAR - April, 2013

Change the Weather History Date:

Friday, April 12, 2013

  Actual Average Record
Temperature  
Mean Temperature 78 °F -  
Max Temperature 93 °F 91 °F 104 °F (2004)
Min Temperature 62 °F 66 °F 53 °F (2005)
Cooling Degree Days 12    
Growing Degree Days 28 (Base 50)    
Moisture  
Dew Point 60 °F    
Average Humidity 57    
Maximum Humidity 100    
Minimum Humidity 18    
Precipitation  
Precipitation 0.00 in - - ()
Sea Level Pressure  
Sea Level Pressure 29.80 in    
Wind  
Wind Speed 1 mph ()    
Max Wind Speed 8 mph    
Max Gust Speed -    
Visibility 2.9 miles    
Events      
Averages and records for this station are not official NWS values.
T = Trace of Precipitation, MM = Missing Value Source: Averaged Metar Reports

Daily Weather History Graph

Daily Weather History Graph

Search for Another Location

Airport or City:

Trip Planner

Search our weather history database for the weather conditions in past years. The results will help you decide how hot, cold, wet, or windy it might be!

Date:

Astronomy

Apr. 12, 2013 Rise Set
Actual Time 6:06 AM IST 6:57 PM IST
Civil Twilight 5:41 AM IST 7:22 PM IST
Nautical Twilight 5:11 AM IST 7:51 PM IST
Astronomical Twilight 4:41 AM IST 8:22 PM IST
Moon 7:04 AM IST (4/12) 8:54 PM IST (4/12)
Length of Visible Light 13h 41m
Length of Day
12h 51m
Waxing Crescent, 3% of the Moon is Illuminated
Apr 12
Waxing Crescent
Apr 18
First Quarter
Apr 26
Full
May 2
Last Quarter
May 10
New

Hourly Weather History & Observations

Time (IST) Temp. Heat Index Dew Point Humidity Pressure Visibility Wind Dir Wind Speed Gust Speed Precip Events Conditions
12:00 AM 71.6 °F - 60.8 °F 69% 29.80 in 2.5 mi Calm Calm - N/A   Haze
12:30 AM 71.6 °F - 62.6 °F 73% 29.80 in 2.5 mi Calm Calm - N/A   Haze
1:00 AM 68.0 °F - 60.8 °F 78% 29.80 in 2.5 mi Calm Calm - N/A   Mist
1:30 AM 68.0 °F - 64.4 °F 88% 29.80 in 2.5 mi Calm Calm - N/A   Mist
2:00 AM 68.0 °F - 62.6 °F 83% 29.80 in 2.5 mi Calm Calm - N/A   Mist
2:30 AM 67 °F - 64 °F 86% 29.77 in 2 mi Calm Calm - -   Mist
2:30 AM 68.0 °F - 64.4 °F 88% 29.77 in 2.5 mi Calm Calm - N/A   Mist
3:00 AM 66.2 °F - 66.2 °F 100% 29.77 in 2.5 mi Calm Calm - N/A   Mist
3:30 AM 66.2 °F - 64.4 °F 94% 29.77 in 2.5 mi Calm Calm - N/A   Mist
4:00 AM 66.2 °F - 66.2 °F 100% 29.77 in 2.5 mi Calm Calm - N/A   Mist
5:00 AM 64.4 °F - 64.4 °F 100% 29.77 in 2.5 mi Calm Calm - N/A   Mist
5:30 AM 64.4 °F - 64.4 °F 100% 29.77 in 2.5 mi Calm Calm - N/A   Mist
6:00 AM 64.4 °F - 64.4 °F 100% 29.77 in 2.5 mi Calm Calm - N/A   Mist
6:30 AM 64.4 °F - 64.4 °F 100% 29.80 in 2.5 mi Calm Calm - N/A   Mist
7:00 AM 66.2 °F - 66.2 °F 100% 29.80 in 2.2 mi Calm Calm - N/A   Partly Cloudy
7:30 AM 68.0 °F - 66.2 °F 94% 29.80 in 2.2 mi Calm Calm - N/A   Partly Cloudy
8:00 AM 71.6 °F - 60.8 °F 69% 29.83 in 2.2 mi Calm Calm - N/A   Clear
8:30 AM 75 °F - 61 °F 52% 29.80 in 1 mi Calm Calm - -   Mist
8:30 AM 75.2 °F - 60.8 °F 61% 29.83 in 2.5 mi Calm Calm - N/A   Clear
9:00 AM 77.0 °F - 60.8 °F 57% 29.83 in 2.5 mi Variable 2.3 mph - N/A   Clear
9:30 AM 78.8 °F - 62.6 °F 57% 29.83 in 2.5 mi Calm Calm - N/A   Haze
10:00 AM 82.4 °F 82.9 °F 60.8 °F 48% 29.86 in 2.8 mi Variable 2.3 mph - N/A   Haze
10:30 AM 84.2 °F 84.4 °F 60.8 °F 45% 29.86 in 2.8 mi NW 5.8 mph - N/A   Haze
11:00 AM 86.0 °F 85.4 °F 59.0 °F 40% 29.86 in 2.8 mi WNW 8.1 mph - N/A   Haze
11:30 AM 86.0 °F 86.1 °F 60.8 °F 43% 29.86 in 3.1 mi WNW 6.9 mph - N/A   Unknown
12:00 PM 87.8 °F 87.1 °F 59.0 °F 38% 29.86 in 3.1 mi WNW 8.1 mph - N/A   Unknown
12:30 PM 89.6 °F 88.1 °F 57.2 °F 33% 29.83 in 3.1 mi West 8.1 mph - N/A   Unknown
1:00 PM 89.6 °F 87.7 °F 55.4 °F 31% 29.83 in 3.1 mi West 5.8 mph - N/A   Unknown
1:30 PM 89.6 °F 87.7 °F 55.4 °F 31% 29.83 in 3.1 mi West 6.9 mph - N/A   Unknown
2:00 PM 91.4 °F 89.4 °F 55.4 °F 29% 29.80 in 3.1 mi Variable 3.5 mph - N/A   Unknown
2:30 PM 92 °F - 53 °F 18% 29.75 in 2 mi West 4.6 mph - -  
2:30 PM 91.4 °F 89.1 °F 53.6 °F 28% 29.80 in 4.3 mi West 4.6 mph - N/A   Unknown
3:00 PM 91.4 °F 89.1 °F 53.6 °F 28% 29.80 in 4.3 mi West 4.6 mph - N/A   Unknown
3:30 PM 93.2 °F 90.8 °F 53.6 °F 26% 29.77 in 4.3 mi Variable 3.5 mph - N/A   Unknown
4:00 PM 91.4 °F 89.1 °F 53.6 °F 28% 29.77 in 4.3 mi Variable 2.3 mph - N/A   Unknown
4:30 PM 91.4 °F 89.4 °F 55.4 °F 29% 29.77 in 4.3 mi WNW 5.8 mph - N/A   Unknown
5:00 PM 91.4 °F 89.4 °F 55.4 °F 29% 29.77 in 4.3 mi WNW 4.6 mph - N/A   Unknown
5:30 PM 91 °F - 56 °F 21% 29.71 in 2 mi West 3.5 mph - -  
5:30 PM 91.4 °F 89.4 °F 55.4 °F 29% 29.77 in 4.3 mi West 3.5 mph - N/A   Unknown
6:00 PM 89.6 °F 87.7 °F 55.4 °F 31% 29.77 in 4.3 mi Variable 1.2 mph - N/A   Unknown
6:30 PM 87.8 °F 86.5 °F 57.2 °F 35% 29.77 in 3.7 mi Calm Calm - N/A   Unknown
7:00 PM 86.0 °F 84.9 °F 57.2 °F 37% 29.77 in 3.7 mi Calm Calm - N/A   Unknown
7:30 PM 82.4 °F 82.5 °F 59.0 °F 45% 29.77 in 3.7 mi Calm Calm - N/A   Unknown
8:00 PM 80.6 °F 80.8 °F 57.2 °F 45% 29.80 in 3.7 mi Calm Calm - N/A   Unknown
8:30 PM 78 °F - 59 °F 42% 29.78 in 2 mi Calm Calm - -   Haze
9:00 PM 78.8 °F - 59.0 °F 51% 29.80 in 3.1 mi Calm Calm - N/A   Haze
9:30 PM 73.4 °F - 60.8 °F 65% 29.83 in 3.1 mi Calm Calm - N/A   Haze
10:00 PM 75.2 °F - 60.8 °F 61% 29.83 in 3.1 mi Calm Calm - N/A   Haze
10:30 PM 75.2 °F - 60.8 °F 61% 29.83 in 3.1 mi Calm Calm - N/A   Haze
11:00 PM 75.2 °F - 60.8 °F 61% 29.83 in 2.5 mi Calm Calm - N/A   Haze
11:30 PM 73 °F - 59 °F 53% 29.81 in 1 mi Calm Calm - -   Haze
11:30 PM 73.4 °F - 59.0 °F 61% 29.83 in 2.5 mi Calm Calm - N/A   Haze